TimeEDT,TemperatureF,Dew PointF,Humidity,Sea Level PressureIn,VisibilityMPH,Wind Direction,Wind SpeedMPH,Gust SpeedMPH,PrecipitationIn,Events,Conditions,WindDirDegrees,DateUTC
12:56 AM,59.0,52.0,78,29.77,10.0,SW,10.4,-,N/A,,Clear,230,2011-10-18 04:56:00
1:56 AM,59.0,51.1,75,29.78,10.0,SSW,8.1,-,N/A,,Clear,210,2011-10-18 05:56:00
2:56 AM,59.0,53.1,81,29.77,10.0,SW,10.4,-,N/A,,Clear,220,2011-10-18 06:56:00
3:56 AM,60.1,53.1,78,29.78,10.0,WSW,12.7,-,N/A,,Clear,240,2011-10-18 07:56:00
4:56 AM,59.0,50.0,72,29.79,10.0,WSW,8.1,-,N/A,,Partly Cloudy,250,2011-10-18 08:56:00
5:56 AM,55.9,48.9,77,29.81,10.0,WSW,4.6,-,N/A,,Clear,240,2011-10-18 09:56:00
6:56 AM,54.0,46.9,77,29.83,10.0,SW,5.8,-,N/A,,Clear,220,2011-10-18 10:56:00
7:56 AM,57.9,46.0,65,29.85,10.0,SW,4.6,-,N/A,,Scattered Clouds,220,2011-10-18 11:56:00
8:56 AM,63.0,43.0,48,29.87,10.0,WSW,11.5,-,N/A,,Clear,240,2011-10-18 12:56:00
9:56 AM,63.0,46.9,56,29.87,7.0,SW,12.7,18.4,N/A,,Clear,220,2011-10-18 13:56:00
10:56 AM,64.9,45.0,48,29.88,10.0,WSW,9.2,-,N/A,,Mostly Cloudy,250,2011-10-18 14:56:00
11:56 AM,63.0,46.0,54,29.88,10.0,SW,10.4,-,N/A,,Mostly Cloudy,230,2011-10-18 15:56:00
12:56 PM,63.0,46.0,54,29.87,10.0,SW,11.5,-,N/A,,Clear,220,2011-10-18 16:56:00
1:56 PM,66.2,44.6,46,29.85,10.0,SW,11.5,-,N/A,,Clear,230,2011-10-18 17:56:00
2:56 PM,66.0,42.1,42,29.86,10.0,SW,9.2,-,N/A,,Clear,220,2011-10-18 18:56:00
3:56 PM,66.0,39.9,38,29.87,10.0,SW,12.7,-,N/A,,Clear,220,2011-10-18 19:56:00
4:56 PM,64.0,37.9,38,29.88,10.0,SW,9.2,-,N/A,,Clear,230,2011-10-18 20:56:00
5:56 PM,60.1,41.0,49,29.89,10.0,SW,8.1,-,N/A,,Partly Cloudy,230,2011-10-18 21:56:00
6:56 PM,55.4,44.6,67,29.90,10.0,WSW,3.5,-,N/A,,Clear,250,2011-10-18 22:56:00
7:56 PM,55.0,46.9,74,29.91,10.0,Calm,Calm,-,N/A,,Partly Cloudy,0,2011-10-18 23:56:00
8:56 PM,55.0,48.9,80,29.93,10.0,South,4.6,-,N/A,,Overcast,190,2011-10-19 00:56:00
9:56 PM,60.1,54.0,80,29.94,10.0,Calm,Calm,-,N/A,,Partly Cloudy,0,2011-10-19 01:56:00
10:56 PM,57.9,54.0,87,29.96,10.0,South,3.5,-,N/A,,Mostly Cloudy,170,2011-10-19 02:56:00
11:56 PM,55.0,52.0,89,29.95,10.0,Calm,Calm,-,0.00,,Mostly Cloudy,0,2011-10-19 03:56:00